COSMOS 886 DEB, 15555

Orbit data source: Space-Track

COSMOS 886 DEB, 15555 is space debris in LEO originally from a launch on Mon, 27 Dec 1976 UTC launched from the Tyuratam Missile And Space Complex (TTMTR). Debris objects in space refer to the collection of defunct objects orbiting the Earth. Examples of debris include non-operational satellites, rocket bodies, and fragments generated from explosions, collisions, or faulty payload assembly.

Loading next visibility...
Identifier
15555, 1976-126BT
Orbit
LEO
Country
Flag of CISCIS
Related business
Manufacturer
Unknown
Mission
Spacecraft
Bus & Motor
Unknown
Mass
Unknown
Launch date (UTC)
1976-12-27 (49 years ago)
Launch vehicle
Unknown
Launch site
Tyuratam Missile And Space Complex (TTMTR)
Object type
Payload
Rocket body
Debris
Shape & HBR
Unknown shape, 0.1 m
Radar Cross Section
Medium (>0.1 m² and <1 m²)

Expand to show TLE details & history
Last TLE update: 2 days ago

TLE from 2 days ago
0 COSMOS 886 DEB
1 15555U 76126BT  26173.97092619  .00000345  00000-0  43992-3 0  9997
2 15555  65.7872  25.3276 0957292 177.4042 183.2479 12.53501186567545
Epoch: 2026-06-22T23:18Z
TLE epoch observation values (Epoch: 2026-06-22T23:18:08.022Z)
Latitude
-0.00001°
Longitude
124.64497°
Altitude
2,200.209 km
Speed
6.484 km/s
True Right ascension
01h 41m 18s
True Declination
0° 00' 00"
Sunlit
Object was in daylight at epoch
Visualization orbit readout
Latitude
Unknown
Longitude
Unknown
Altitude
Unknown
Speed
Unknown
Apparent Right ascension
Unknown
Apparent Declination
Unknown
Sunlit
N/A
Visualization observer readout
Local Sidereal Time
01:50:55
Azimuth
Unknown
Elevation
Unknown
Doppler factor
Unknown
Orbital elements
Apogee altitude
2,197.712 km
Perigee altitude
699.241 km
Semi-major axis
7,826.614 km
Eccentricity
0.09573
Inclination
65.7872°
RAAN
25.3276°
Arg. of periapsis
177.4042°
True anomaly
182.69297°
Mean anomaly
183.2479°
Eccentric anomaly
182.96426°
Mean motion
3.1346 °/min
Orbital period
114.85 mins
BSTAR
0.00043992
Loading maneuver chart data...
Computing Atmospheric mass density...

Documentation

Showing up to 5 results
|